Location: Unspecified
(12.6500°N, 0.0000°E)
Time: 23:08:50
(UTC+00:00)

Hubble Space Telescope - Visible Passes

Search period start: 26 May 2019 00:00
Search period end: 05 June 2019 00:00
Orbit: 537 x 540 km, 28.5° (Epoch: 26 May)

Date Brightness Start Highest point End Pass type
(mag) Time Alt. Az. Time Alt. Az. Time Alt. Az.
26 May 2.5 19:36:58 10° W 19:40:13 22° SSW 19:41:32 19° S visible
27 May 3.0 19:27:05 10° WSW 19:29:41 16° SSW 19:31:45 12° S visible
28 May 3.3 19:17:44 10° SW 19:19:10 12° SSW 19:20:36 10° S visible
01 Jun 3.1 05:02:29 10° S 05:04:54 15° SSE 05:07:20 10° ESE visible
02 Jun 2.7 04:51:15 10° SSW 04:54:22 21° SSE 04:57:30 10° E visible
03 Jun 2.2 04:40:48 13° SSW 04:43:50 29° SSE 04:47:25 10° E visible
04 Jun 1.6 04:30:58 20° SSW 04:33:18 40° SSE 04:37:10 10° E visible
